Location: Huntsville
(41.2590°N, 111.7678°W)
Time: 20:47:39
(UTC+00:00)

Explorer 7 - Pass Details

Date: 13 June 2021
Orbit: 484 x 676 km, 50.3° (Epoch: 30 July)

Event Time Altitude Azimuth Distance (km) Brightness Sun altitude
Rises 10:47:39 0° 299° (WNW) 2,916 10.3 -10.5°
Reaches altitude 10° 10:50:17 10° 311° (NW) 1,974 9.6 -10.2°
Maximum altitude 10:54:15 29° 12° (NNE) 1,092 9.0 -9.6°
Drops below altitude 10° 10:57:59 10° 73° (ENE) 1,862 10.7 -9.1°
Sets 11:00:24 0° 85° (E) 2,720 11.3 -8.8°
